Overview Statistics Trail Chart Weather Telemetry Raw packets
 

This is the latest recevied weather packets stored in our database for station/object N0QWM. If no packets are shown the sender has not sent any weather packets the latest 10 day(s).

<< 104 105 106 107 108 109 110 >>
Time Temp. Humidity Pressure Rain* Wind** Luminosity Snow
1787867291 28.89° C 81% 1019 hPa 0 mm - 69 W/m² -
1787866987 28.33° C 81% 1019.1 hPa 0 mm - 73 W/m² -
1787866682 28.89° C 80% 1019 hPa 0 mm - 80 W/m² -
1787866380 28.89° C 80% 1019.3 hPa 0 mm - 79 W/m² -
1787866075 28.89° C 81% 1019.1 hPa 0 mm - 87 W/m² -
1787865770 28.89° C 81% 1019 hPa 0 mm - 93 W/m² -
1787865465 28.89° C 79% 1018.9 hPa 0 mm - 100 W/m² -
1787865160 29.44° C 80% 1019.1 hPa 0 mm - 107 W/m² -
1787864857 29.44° C 78% 1019.1 hPa 0 mm - 121 W/m² -
1787864557 29.44° C 79% 1019.1 hPa 0 mm - 135 W/m² -
1787864251 29.44° C 77% 1019.3 hPa 0 mm - 147 W/m² -
1787863946 29.44° C 77% 1019.3 hPa 0 mm - 170 W/m² -
1787863644 29.44° C 76% 1019.1 hPa 0 mm - 190 W/m² -
1787863343 29.44° C 78% 1019.2 hPa 0 mm - 217 W/m² -
1787863040 30° C 77% 1019.4 hPa 0 mm - 217 W/m² -
1787862735 29.44° C 79% 1019.4 hPa 0 mm - 234 W/m² -
1787862429 29.44° C 79% 1019.4 hPa 0 mm - 248 W/m² -
1787862125 29.44° C 78% 1019.5 hPa 0 mm - 258 W/m² -
1787861824 28.89° C 79% 1019.6 hPa 0 mm - 271 W/m² -
1787861523 28.89° C 80% 1019.7 hPa 0 mm - 291 W/m² -
1787861218 28.89° C 80% 1019.8 hPa 0 mm - 180 W/m² -
1787860916 28.89° C 80% 1020.1 hPa 0 mm - 134 W/m² -
1787860611 28.89° C 81% 1020 hPa 0 mm - 163 W/m² -
1787860312 28.89° C 81% 1019.9 hPa 0 mm - 168 W/m² -
1787860002 28.33° C 80% 1020 hPa 0 mm - 167 W/m² -

* Rain latest hour (hover to see other rain measurements)
** Current wind speed in m/s (hover to see current wind gust speed)